Starlink 5611

operational
NORAD ID: 55761 Int'l Des: 2023-028 Owner: SPXS Country: US Constellation: starlink
LEOCIRCULAR

关于 Starlink 5611

正在加载描述...

实时位置

正在加载3D地球...

即将过境

高度历史

Altitude vs Time

uPlot chart will show altitude changes over time

两行轨道根数

1 55761U 23028W 25306.41249562 .00000072 00000-0 13834-4 0 9990
2 55761 69.9986 185.5529 0002535 268.1917 91.8952 14.98334235147465
Epoch: Nov 2, 2025 • Age: 27 hours

当前状态

高度 595.1 km
速度 7.56 km/s
星下点 -67.16°S, 171.29°W
发射日期 Mar 3, 2023
运行时间 2.6 years
类型 internet

技术详情

分类 Payload
质量 305.00 kg
干质量 290.00 kg
总质量 305.00 kg
长度 0.20 m
直径 2.80 m
跨度 9.00 m
形状 Box + pan
制造商 SPXS
平台类型 Starlink
阶段状态 In Orbit
所有者/国家 SPXS/US

大型星座

Loading constellations...